Weather in Sutoki

Russia / Pskov Oblast     56°14′09″N   29°07′21″E
temp.,
°C
wind,
m/s
gust,
m/s
humid.,
%
clouds,
%
prec.,
mm/h
press.,
hPa
HPBL,
m
8 march, mon
mon800:00−4wnw51091100 0.2 1000869
03:00−5nw4993100 0.5 1002666
06:00−7nw4109368 0.1 1003556
09:00−7nnw598783 0.2 1006876
12:00−6nnw5775100 0.1 1009920
15:00−5nnw5772100 0.1 1011904
18:00−6nnw4776100 0.0 1013926
21:00−8nnw388698 0.1 1015368
9 march, tue
tue900:00−10nnw269352 0.0 1017203
03:00−11nnw259626 0.0 1018163
06:00−12nw25968 0.0 1019151
09:00−10nw248412 0.0 1020232
12:00−6wnw236617 0.0 1020776
15:00−4w235958 0.0 10201070
18:00−4wsw2577100 0.0 1019674
21:00−5sw3882100 0.1 1020325
10 march, wed
wed1000:00−5wsw3979100 0.0 1020332
03:00−5wsw3779100 0.0 1020276
06:00−5sw2781100 0.0 1020245
09:00−5wsw1381100 0.0 1022233
12:00−4e2380100 0.1 1023443
15:00−5e5881100 0.2 1023491
18:00−6ese4886100 0.1 1023449
21:00−8ese5988100 0.1 1024410
11 march, thu
thu1100:00−9se4988100 0.0 1025400
03:00−9se4989100 0.0 1024348
06:00−10se499198 0.0 1024298
09:00−10sse498898 0.0 1024288
12:00−5sse487332 0.0 1022465
15:00−2sse586417 0.0 10201119
18:00−3sse51077100 0.0 10181000
21:00−4sse71484100 0.1 1016970
12 march, fri
fri1200:00−5sse71482100 0.1 1013936
03:00−5se71581100 0.1 1008902
06:00−5se81790100 0.5 1003961
09:00−5sse81591100 3.1 10001033
12:00−2se71391100 1.8 997779
15:000sse4798100 3.9 995353
18:00+1sw3798100 2.1 995338
21:00+1sw41098100 2.2 996507